Weather History for KBOI - November, 2013

Change the Weather History Date:

Sunday, November 24, 2013

  Actual Average Record
Temperature  
Mean Temperature 32 °F 36 °F  
Max Temperature 40 °F 44 °F 62 °F (1949)
Min Temperature 23 °F 29 °F 0 °F (1993)
Degree Days  
Heating Degree Days 33 29  
Month to date heating degree days 584 569  
Since 1 July heating degree days 1127 1075  
Cooling Degree Days 0 0  
Month to date cooling degree days 0 0  
Year to date cooling degree days 1320 942  
Moisture  
Dew Point 24 °F    
Average Humidity 74    
Maximum Humidity 88    
Minimum Humidity 59    
Precipitation  
Precipitation 0.00 in 0.05 in 0.61 in (1984)
Month to date precipitation 1.49 1.06  
Year to date precipitation 8.91 9.89  
Snow  
Snow 0.00 in 0.10 in 4.00 in (1908)
Month to date snowfall 2.0 1.7  
Since 1 July snowfall 2.0 1.8  
Snow Depth 0.00 in    
Sea Level Pressure  
Sea Level Pressure 30.34 in    
Wind  
Wind Speed 2 mph (SSW)    
Max Wind Speed 9 mph    
Max Gust Speed 10 mph    
Visibility 7 miles    
Events      
T = Trace of Precipitation, MM = Missing Value Source: NWS Daily Summary

Daily Weather History Graph

Daily Weather History Graph

Search for Another Location

Airport or City:

Trip Planner

Search our weather history database for the weather conditions in past years. The results will help you decide how hot, cold, wet, or windy it might be!

Date:

Astronomy

Nov. 24, 2013 Rise Set
Actual Time 7:50 AM MST 5:12 PM MST
Civil Twilight 7:18 AM MST 5:44 PM MST
Nautical Twilight 6:43 AM MST 6:19 PM MST
Astronomical Twilight 6:09 AM MST 6:53 PM MST
Moon 11:49 PM MST (11/24) 12:35 PM MST (11/24)
Length of Visible Light 10h 25m
Length of Day
9h 22m
Waning Gibbous, 60% of the Moon is Illuminated
Nov 24
Waning Gibbous
Nov 25
Last Quarter
Dec 2
New
Dec 9
First Quarter
Dec 17
Full

Hourly Weather History & Observations

Time (MST) Temp. Windchill Dew Point Humidity Pressure Visibility Wind Dir Wind Speed Gust Speed Precip Events Conditions
12:53 AM 24.1 °F - 21.9 °F 91% 30.33 in 8.0 mi Calm Calm - N/A   Clear
1:53 AM 25.0 °F 18.1 °F 21.9 °F 88% 30.32 in 7.0 mi SE 5.8 mph - N/A   Clear
2:53 AM 25.0 °F 20.7 °F 21.9 °F 88% 30.33 in 9.0 mi SE 3.5 mph - N/A   Clear
3:53 AM 24.1 °F - 19.9 °F 84% 30.34 in 8.0 mi Calm Calm - N/A   Clear
4:53 AM 25.0 °F 18.1 °F 21.0 °F 85% 30.33 in 6.0 mi SE 5.8 mph - N/A   Clear
5:53 AM 24.1 °F - 21.0 °F 88% 30.34 in 6.0 mi Calm Calm - N/A   Clear
6:53 AM 23.0 °F - 19.9 °F 88% 30.36 in 10.0 mi Calm Calm - N/A   Clear
7:53 AM 23.0 °F 17.0 °F 19.9 °F 88% 30.37 in 6.0 mi SSE 4.6 mph - N/A   Clear
8:53 AM 26.1 °F 20.5 °F 21.9 °F 84% 30.37 in 5.0 mi SE 4.6 mph - N/A   Clear
9:53 AM 30.0 °F 24.1 °F 25.0 °F 82% 30.38 in 6.0 mi SE 5.8 mph - N/A   Haze
10:53 AM 32.0 °F - 25.0 °F 75% 30.37 in 6.0 mi Calm Calm - N/A   Haze
11:53 AM 35.1 °F - 26.1 °F 70% 30.35 in 7.0 mi Calm Calm - N/A   Clear
12:53 PM 36.0 °F - 26.1 °F 67% 30.34 in 7.0 mi Calm Calm - N/A   Clear
1:53 PM 37.9 °F 35.5 °F 27.0 °F 65% 30.31 in 7.0 mi WNW 3.5 mph - N/A   Clear
2:53 PM 39.0 °F 34.0 °F 27.0 °F 62% 30.31 in 7.0 mi NW 6.9 mph - N/A   Clear
3:53 PM 39.0 °F 34.8 °F 27.0 °F 62% 30.30 in 8.0 mi WNW 5.8 mph - N/A   Clear
4:53 PM 37.0 °F 33.3 °F 26.1 °F 65% 30.30 in 7.0 mi West 4.6 mph - N/A   Clear
5:53 PM 34.0 °F 29.8 °F 26.1 °F 73% 30.32 in 8.0 mi WNW 4.6 mph - N/A   Clear
6:53 PM 33.1 °F - 25.0 °F 72% 30.32 in 7.0 mi Calm Calm - N/A   Clear
7:53 PM 32.0 °F - 25.0 °F 75% 30.34 in 6.0 mi Calm Calm - N/A   Haze
8:53 PM 30.0 °F - 25.0 °F 82% 30.35 in 6.0 mi Calm Calm - N/A   Haze
9:53 PM 28.9 °F - 24.1 °F 82% 30.35 in 6.0 mi Calm Calm - N/A   Haze
10:53 PM 27.0 °F - 23.0 °F 85% 30.36 in 6.0 mi Calm Calm - N/A   Clear
11:53 PM 27.0 °F - 23.0 °F 85% 30.37 in 5.0 mi Calm Calm - N/A   Clear